Regional Weather Roundup
Issued by NWS

Home | Current Version | Previous Version | Text Only | Print | Product List | Glossary Off
Versions: 1 2 3 4 5 6 7 8 9 10 11 12 13 14 15 16 17 18 19 20 21 22 23 24 25 26 27 28 29 30 31 32 33 34 35 36 37 38 39 40 41 42 43 44 45 46 47 48 49 50

000
ASUS44 KMEG 270410
RWRTN
TENNESSEE HOURLY STATE WEATHER ROUNDUP
NATIONAL WEATHER SERVICE MEMPHIS TN
1100 PM CDT FRI MAY 26 2017

TNZ002-004-019-021-049-052-054-088>092-270500-
WEST TENNESSEE

CITY           SKY/WX    TMP DP  RH WIND       PRES   REMARKS
MEMPHIS INTL   MOCLDY    80  69  69 S10G18    29.92R
NWS MEMPHIS      N/A     80 N/A N/A MISG        N/A
JACKSON        CLOUDY    78  64  61 S8        29.91S
DYERSBURG        N/A    N/A N/A N/A MISG        N/A
COVINGTON      CLOUDY    79  70  73 SW7       29.90S
UNION CITY     CLOUDY    77  68  73 CALM      29.88S
BOLIVAR        CLOUDY    79  64  61 SW5       29.93S
PARIS          CLOUDY    75  66  73 S5        29.89S
HUNTINGDON     CLOUDY    77  64  65 SW3       29.90S
LEXINGTON      CLOUDY    73  61  64 MISG      29.93S
SELMER         CLOUDY    75  61  60 CALM      29.94S
SAVANNAH       CLOUDY    66  64  94 S3        29.94S
$$

TNZ008-025-027-028-033-062-065-066-270500-
NORTH MIDDLE TENNESSEE

CITY           SKY/WX    TMP DP  RH WIND       PRES   REMARKS
NASHVILLE      CLOUDY    74  62  66 S6        29.94R
PORTLAND       CLOUDY    75  61  60 S8        29.92S
CLARKSVILLE    CLOUDY    74  60  61 S6        29.90S
SMYRNA         CLOUDY    72  63  73 S5        29.95R
COOKEVILLE     CLOUDY    64  61  88 CALM      29.97R
GALLATIN       CLOUDY    72  63  73 S3        29.95S
CROSSVILLE     PTCLDY    67  58  72 CALM      30.03R
$$

TNZ061-075-076-078-094-096-097-270500-
SOUTH MIDDLE TENNESSEE

CITY           SKY/WX    TMP DP  RH WIND       PRES   REMARKS
FAYETTEVILLE   CLEAR     73  61  64 S3        29.98R
TULLAHOMA      CLEAR     68  61  77 CALM      30.00S
WINCHESTER     CLEAR     66  61  82 CALM        N/A
MCMINNVILLE    CLEAR     72  61  68 SW3       29.99R
COLUMBIA       MOCLDY    68  63  83 CALM      29.94R
SHELBYVILLE    CLEAR     70  61  73 S5        29.97R
$$

TNZ017-018-042-046-047-270500-
NORTHEAST TENNESSEE

CITY           SKY/WX    TMP DP  RH WIND       PRES   REMARKS
TRI CITIES     PTCLDY    60  57  89 CALM      30.03R
ELIZABETHTON   PTCLDY    59  55  88 CALM      30.04R
$$

TNZ012-013-036-069-073-074-270500-
CENTRAL EAST TENNESSEE

CITY           SKY/WX    TMP DP  RH WIND       PRES   REMARKS
KNOXVILLE      CLEAR     69  60  73 S5        29.99R
OAK RIDGE      MOCLDY    66  62  87 CALM      30.01R
DOWNTOWN KNOXV CLEAR     63  63 100 CALM      30.00R
GATLINBURG     CLEAR     63  59  88 CALM      30.00R
MORRISTOWN     MOCLDY    66  61  82 CALM      30.01R
JACKSBORO      CLOUDY    64  63  94 CALM      30.03R
$$

TNZ083-085-099-270500-
SOUTHEAST TENNESSEE

CITY           SKY/WX    TMP DP  RH WIND       PRES   REMARKS
CHATTANOOGA    PTCLDY    73  62  68 S3        29.99R
$$

SKY/WX REPORTED AS FAIR MEANS FEW OR NO CLOUDS BELOW
12 THOUSAND FEET.




USA.gov is the U.S. government's official web portal to all federal, state and local government web resources and services.